This demonstration page uses our WeatherBlox Daily Observations layout. Learn more.

41.55636, -103.73856

Hourly Observations for December 10, 2019

Temp ( °F °C ) Dew Point ( °F °C ) Humidity (%) Winds ( mph kmh ) Pressure ( in mb ) Visibility ( mi km ) Precip ( " mm )
12:58 am 00:58 Mostly Clear 26 -3.5 17 -8.3 70 70 SW 3 6 30.16 1021 10 16.0934 0 0
1:58 am 01:58 Mostly Cloudy 24 -4.4 17 -8.4 74 74 SW 7 11 30.16 1021 10 16.0934 0 0
2:58 am 02:58 Mostly Cloudy 24 -4.5 17 -8.1 76 76 W 8 13 30.16 1022 10 16.0934 0 0
3:58 am 03:58 Partly Cloudy 24 -4.5 18 -8 77 77 W 8 13 30.16 1022 10 16.0934 0 0
4:58 am 04:58 Partly Cloudy 26 -3.5 18 -7.8 72 72 W 8 13 30.15 1021 10 16.0934 0 0
5:58 am 05:58 Mostly Cloudy 24 -4.3 18 -7.9 76 76 WNW 10 17 30.15 1021 10 16.0934 0 0
6:58 am 06:58 Mostly Cloudy 25 -3.9 18 -7.7 75 75 W 7 11 30.14 1021 10 16.0934 0 0
7:58 am 07:58 Mostly Cloudy 27 -3 19 -7.1 74 74 WNW 7 11 30.15 1021 10 16.0934 0 0
8:58 am 08:58 Cloudy 26 -3.2 18 -7.7 71 71 Calm 30.18 1022 10 16.0934 0 0
9:58 am 09:58 Mostly Cloudy 26 -3.3 19 -7.4 74 74 N 6 9 30.18 1022 10 16.0934 0 0
10:58 am 10:58 Mostly Cloudy 25 -4.1 19 -7.1 80 80 NNE 5 7 30.21 1023 10 16.0934 0 0
11:58 am 11:58 Mostly Cloudy with Scattered Snow Showers 24 -4.6 20 -6.5 87 87 Calm 30.24 1024 10 16.0934 0 0
12:58 pm 12:58 Mostly Cloudy with Light Snow Showers 22 -5.6 20 -6.5 93 93 Calm 30.28 1025 9 14.48406 0 0
1:58 pm 13:58 Mostly Cloudy with Scattered Snow Showers 22 -5.3 21 -6.3 93 93 Calm 30.29 1026 6 9.65604 0 0
2:58 pm 14:58 Mostly Cloudy with Light Snow Showers 23 -5.2 21 -6.1 93 93 Calm 30.3 1026 10 16.0934 0 0
3:58 pm 15:58 Mostly Cloudy 24 -4.2 22 -5.7 89 89 Calm 30.31 1026 10 16.0934 0 0
4:58 pm 16:58 Partly Cloudy 25 -3.9 20 -6.9 80 80 Calm 30.32 1027 10 16.0934 0 0
5:58 pm 17:58 Mostly Cloudy 26 -3.2 20 -6.6 78 78 Calm 30.3 1026 10 16.0934 0 0
6:58 pm 18:58 Mostly Cloudy 32 -0.2 23 -4.9 71 71 SW 5 7 30.25 1024 10 16.0934 0 0
7:58 pm 19:58 Mostly Cloudy 35 1.8 25 -4.1 65 65 SW 9 15 30.19 1022 10 16.0934 0 0
8:58 pm 20:58 Sunny 37 2.7 22 -5.6 55 55 NW 14 22 30.17 1022 10 16.0934 0 0
9:58 pm 21:58 Sunny 39 4 21 -6.2 48 48 WNW 23 37 30.19 1022 10 16.0934 0 0
10:58 pm 22:58 Mostly Cloudy 37 2.8 21 -6.1 52 52 WNW 21 33 30.19 1023 10 16.0934 0 0
11:58 pm 23:58 Partly Cloudy 33 0.6 22 -5.8 63 63 W 12 19 30.24 1024 10 16.0934 0 0

Powered by AerisWeather